This is the latest recevied weather packets stored in our database for station/object VE1UHF-4. If no packets are shown the sender has not sent any weather packets the latest 10 day(s).
| Time | Temp. | Humidity | Pressure | Rain* | Wind** | Luminosity | Snow |
|---|---|---|---|---|---|---|---|
| 1777842135 | 9.44° C | 79% | 991.7 hPa | 0 mm | - | - | - |
| 1777841234 | 10° C | 78% | 992.2 hPa | 0 mm | - | - | - |
| 1777840334 | 10° C | 79% | 992.7 hPa | 0 mm | - | - | - |
| 1777838534 | 10.56° C | 79% | 993.8 hPa | 0 mm | - | - | - |
| 1777836732 | 10.56° C | 79% | 994.4 hPa | 0 mm | - | - | - |
| 1777835831 | 11.11° C | 79% | 994.6 hPa | 0 mm | - | - | - |
| 1777833129 | 11.67° C | 78% | 995.5 hPa | 0 mm | - | - | - |
| 1777830428 | 12.22° C | 79% | 997.6 hPa | 0 mm | - | - | - |
| 1777826826 | 12.78° C | 80% | 1000 hPa | 0 mm | - | - | - |
| 1777825925 | 12.78° C | 80% | 1000.3 hPa | 0 mm | - | - | - |
| 1777824124 | 12.78° C | 81% | 1001.4 hPa | 0 mm | - | - | - |
| 1777818721 | 12.78° C | 80% | 1004 hPa | 0 mm | - | - | - |
| 1777816920 | 12.78° C | 81% | 1004.3 hPa | 0 mm | - | - | - |
| 1777815120 | 12.22° C | 81% | 1004 hPa | 0 mm | - | - | - |
| 1777813318 | 11.67° C | 82% | 1003.8 hPa | 0 mm | - | - | - |
| 1777810616 | 11.11° C | 82% | 1004.3 hPa | 0 mm | - | - | - |
| 1777807014 | 10.56° C | 80% | 1005.1 hPa | 0 mm | - | - | - |
| 1777806113 | 10.56° C | 81% | 1005.1 hPa | 0 mm | - | - | - |
| 1777802511 | 10° C | 78% | 1005.8 hPa | 0 mm | - | - | - |
| 1777800710 | 10° C | 77% | 1005.8 hPa | 0 mm | - | - | - |
| 1777799809 | 10° C | 76% | 1006 hPa | 0 mm | - | - | - |
| 1777798909 | 10° C | 76% | 1005.8 hPa | 0 mm | - | - | - |
| 1777798008 | 10° C | 75% | 1006 hPa | 0 mm | - | - | - |
| 1777797108 | 10° C | 75% | 1006.1 hPa | 0 mm | - | - | - |
| 1777796207 | 10.56° C | 75% | 1006.4 hPa | 0 mm | - | - | - |
* Rain since midnight (hover to see other rain measurements)
** Current wind speed in m/s (hover to see current wind gust speed)